CAPE
0 0 0 0 0 0 0 0 0 0 0 0 0 0 0 0 0 3 3 24 30 41
0 0 0 0 0 0 0 0 0 0 0 0 0 0 0 0 2 1 1 2 2 2
0 0 0 0 0 0 0 0 0 0 0 0 0 0 0 1 9 11 2 1 1 0
0 0 0 0 0 0 0 0 0 0 0 0 0 0 8 20 47 62 36 9 1 1
0 0 0 0 0 0 0 0 0 0 0 0 0 0 22 44 60 50 52 17 14 23
0 0 0 0 0 0 0 0 0 0 0 0 0 0 24 64 67 35 2 3 7 2
0 0 0 0 0 0 0 0 0 0 0 0 0 0 10 5 3 4 2 1 3 2
0 0 0 0 0 0 0 0 0 0 0 0 1 1 5 0 1 1 3 2 2 2
0 0 0 0 0 0 0 0 0 0 0 7 6 0 0 1 1 1 2 0 0 2
0 0 0 0 0 0 0 0 0 0 8 7 25 1 0 0 1 1 1 0 1 1
0 0 0 0 0 0 0 0 3 1 8 1 8 0 0 0 0 1 1 1 0 1
0 0 0 0 0 0 0 3 8 1 0 0 0 0 0 0 0 0 0 1 1 3
0 0 0 0 0 2 4 3 0 0 0 0 1 2 0 0 1 0 0 1 0 0
0 0 0 0 3 5 3 5 0 0 0 0 2 2 1 1 1 0 1 1 0 1
CIN
0 0 0 0 0 0 0 0 0 0 0 0 0 0 0 0 -1 0 -1 -12 -10 -4
0 0 0 0 0 0 0 0 0 0 0 0 0 0 0 -1 0 -1 0 0 -1 0
0 0 0 0 0 0 0 0 0 0 0 0 0 0 0 0 -14 -21 0 0 0 0
0 0 0 0 0 0 0 0 0 0 0 0 0 0 -41 -48 -26 -18 -35 -59 -1 0
0 0 0 0 0 0 0 0 0 0 0 0 0 0 -19 -27 -31 -43 -32 -39 -43 -19
0 0 0 0 0 0 0 0 0 0 0 0 0 0 -10 -17 -26 -61 -81 0 0 0
0 0 0 0 0 0 0 0 0 0 0 0 0 -1 -20 -22 -25 0 0 0 0 0
0 0 0 0 0 0 0 0 0 0 0 0 -1 0 0 0 0 0 0 0 0 0
0 0 0 0 0 0 0 0 0 0 -1 -2 0 0 0 0 0 0 0 0 0 0
0 0 0 0 0 0 0 0 0 -1 -1 -4 -1 -2 0 0 0 0 0 0 0 0
0 0 0 0 0 0 0 0 0 -1 -1 -1 -8 -2 0 0 0 0 0 0 0 0
0 0 0 0 0 0 0 0 0 -5 0 0 0 -1 0 0 0 0 0 0 0 0
0 0 0 0 0 -1 -1 -1 0 0 0 0 0 0 0 0 0 0 0 0 0 0
0 0 0 0 -1 -1 -1 0 0 0 0 0 0 0 0 0 0 0 0 0 0 0
Wind_Speed
6 8 11 13 16 19 20 22 22 25 26 27 27 27 26 26 24 23 22 21 20 20
9 11 13 15 17 20 22 24 26 27 27 28 27 27 26 25 25 23 22 22 22 23
12 13 15 18 21 22 24 26 28 28 28 28 28 28 28 27 26 25 25 24 25 24
15 16 18 21 22 24 27 28 30 31 31 32 32 32 29 28 27 27 26 24 24 24
16 16 19 21 23 25 28 31 32 33 35 36 35 33 31 30 27 26 25 24 22 20
17 18 20 21 24 26 32 33 35 37 38 38 37 34 31 29 27 25 23 21 18 23
17 18 19 23 25 32 32 35 37 38 39 38 36 34 31 27 25 22 20 16 18 19
16 18 20 24 32 31 34 36 38 39 38 37 35 32 28 25 21 19 16 15 20 14
17 19 23 29 29 33 35 38 39 39 39 38 34 30 27 22 18 16 13 29 17 14
18 21 26 27 30 34 37 38 38 39 39 35 29 26 23 18 14 13 26 17 17 16
19 23 24 27 31 34 34 35 36 36 34 30 24 24 20 15 11 28 18 14 10 13
20 22 24 28 31 32 32 32 33 32 31 26 24 21 18 16 28 29 19 15 12 12
20 22 26 27 28 29 30 31 30 29 26 23 22 20 29 31 25 22 19 14 14 9
20 23 24 25 26 28 28 29 29 28 24 21 20 28 31 30 25 21 17 15 14 10
Wind_Direction
279 298 306 312 319 321 321 321 323 323 324 324 324 324 323 321 319 317 314 309 306 304
292 302 307 312 317 319 319 322 322 322 323 323 324 323 321 317 315 313 310 306 303 302
302 305 310 313 315 317 321 322 323 323 324 323 321 320 317 317 314 310 308 305 302 301
303 306 310 314 317 321 323 324 323 323 322 321 319 317 314 314 312 310 308 305 302 300
301 306 310 314 319 323 323 323 323 323 322 320 317 315 311 310 309 309 307 306 302 299
299 306 311 315 320 323 324 324 324 323 322 321 318 315 311 307 306 306 307 306 301 301
301 308 313 317 320 321 323 323 323 323 322 320 319 317 313 310 307 304 304 302 304 305
304 310 315 316 321 321 322 322 322 322 322 320 319 318 315 311 308 305 301 304 307 308
303 310 314 319 318 320 321 322 323 323 321 320 319 319 315 308 305 304 294 293 306 313
303 310 316 317 318 321 322 324 326 327 326 324 324 326 322 315 302 298 285 307 306 314
307 313 316 317 319 322 324 326 327 329 331 331 330 334 330 326 315 279 297 306 308 317
312 315 317 320 322 325 327 329 331 332 335 336 331 335 335 332 262 274 302 303 307 317
314 318 320 322 324 327 329 330 333 334 337 336 335 332 301 271 299 304 304 309 303 308
317 320 321 323 326 328 329 330 332 334 339 340 339 310 292 292 298 306 312 309 301 301